This demonstration page uses our WeatherBlox Daily Observations layout. Learn more.

38.88101, -77.10428

Hourly Observations for June 23, 2016

Temp ( °F °C ) Dew Point ( °F °C ) Humidity (%) Winds ( mph kmh ) Pressure ( in mb ) Visibility ( mi km ) Precip ( " mm )
12:52 am 00:52 Partly Cloudy 73 22.8 69 20.6 87 87 SSE 3 6 29.95 1014 10 16.0934 0 0
1:52 am 01:52 Mostly Cloudy 73 22.8 69 20.6 87 87 SW 3 6 29.95 1014 10 16.0934 0 0
2:52 am 02:52 Mostly Cloudy 72 22.2 69 20.6 91 91 SSW 7 11 29.92 1013 10 16.0934 0 0
3:52 am 03:52 Cloudy 73 22.8 70 21.1 90 90 S 3 6 29.91 1013 10 16.0934 0 0
4:52 am 04:52 Cloudy 73 22.8 70 21.1 90 90 Calm 29.92 1013 10 16.0934 0 0
5:13 am 05:13 Cloudy 73 22.8 70 21.1 90 90 SSW 6 9 29.91 1013 10 16.0934 0 0.0254
5:52 am 05:52 Cloudy with Rain 73 22.8 69 20.6 87 87 W 12 19 29.95 1014 5 8.0467 0.04 1.016
6:21 am 06:21 Cloudy with Light Thunderstorms 72 22.2 68 20 87 87 W 8 13 29.94 1014 7 11.26538 0.1 2.54
6:42 am 06:42 Cloudy with Rain 72 22 68 20 88 88 W 9 15 29.94 1014 9 14.48406 0 0
6:52 am 06:52 Cloudy with Rain 72 22.2 68 20 87 87 NW 8 13 29.93 1014 6 9.65604 0.16 4.064
7:04 am 07:04 Cloudy with Rain 72 22 68 20 88 88 WNW 8 13 29.94 1014 3 4.82802 0 0
7:52 am 07:52 Cloudy with Rain 71 21.7 68 20 90 90 WSW 3 6 29.93 1014 4 6.43736 0.19 4.826
8:52 am 08:52 Cloudy with Light Rain 71 21.7 69 20.6 94 94 SSW 13 20 29.88 1012 6 9.65604 0.14 3.556
9:14 am 09:14 Cloudy 72 22 70 21 94 94 N 13 20 29.88 1012 7 11.26538 0 0
9:52 am 09:52 Cloudy 74 23.3 68 20 82 82 WSW 7 11 29.88 1012 10 16.0934 0 0.0254
10:31 am 10:31 Cloudy 75 23.9 69 20.6 82 82 WSW 7 11 29.88 1012 10 16.0934 0 0
10:52 am 10:52 Cloudy 74 23.3 67 19.4 79 79 WSW 8 13 29.88 1012 10 16.0934 0 0
11:01 am 11:01 Cloudy 74 23.3 67 19.4 79 79 SSW 8 13 29.88 1012 10 16.0934 0 0
11:52 am 11:52 Cloudy 75 23.9 67 19.4 76 76 WSW 7 11 29.88 1012 10 16.0934 0 0
12:48 pm 12:48 Cloudy 77 25 68 20 74 74 WNW 7 11 29.85 1011 10 16.0934 0 0
12:52 pm 12:52 Cloudy 78 25.6 68 20 71 71 W 9 15 29.86 1011 10 16.0934 0 0
1:52 pm 13:52 Cloudy 79 26.1 67 19.4 67 67 W 7 11 29.86 1011 10 16.0934 0 0
2:36 pm 14:36 Mostly Cloudy 81 27 66 19 62 62 WNW 10 17 29.85 1011 10 16.0934 0 0
2:52 pm 14:52 Mostly Cloudy 80 26.7 67 19.4 64 64 WNW 9 15 29.86 1011 10 16.0934 0 0
3:52 pm 15:52 Cloudy 82 27.8 68 20 63 63 WNW 6 9 29.84 1011 10 16.0934 0 0
4:52 pm 16:52 Cloudy 80 26.7 68 20 67 67 SSW 8 13 29.85 1011 10 16.0934 0 0
5:04 pm 17:04 Cloudy 79 26 70 21 74 74 SW 10 17 29.85 1011 10 16.0934 0 0
5:52 pm 17:52 Cloudy 78 25.6 70 21.1 76 76 SSW 10 17 29.85 1011 10 16.0934 0 0
6:28 pm 18:28 Cloudy 79 26 70 21 74 74 SSW 7 11 29.83 1010 10 16.0934 0 0
6:52 pm 18:52 Cloudy 78 25.6 70 21.1 76 76 SSW 6 9 29.81 1009 10 16.0934 0 0
7:23 pm 19:23 Cloudy 78 25.6 70 21.1 76 76 SSW 5 7 29.83 1010 10 16.0934 0 0
7:52 pm 19:52 Cloudy 78 25.6 70 21.1 76 76 S 6 9 29.83 1010 10 16.0934 0 0
8:52 pm 20:52 Cloudy 77 25 71 21.7 82 82 S 5 7 29.85 1011 10 16.0934 0 0
9:52 pm 21:52 Mostly Clear 77 25 71 21.7 82 82 undefined N/A 29.87 1012 N/A 0 0
10:52 pm 22:52 Cloudy 76 24.4 70 21.1 82 82 SSW 5 7 29.87 1012 10 16.0934 0 0
11:52 pm 23:52 Cloudy 75 23.9 69 20.6 82 82 SSW 6 9 29.87 1011 10 16.0934 0 0

Powered by AerisWeather